TAIJING-2 04

导读

TAIJING-2 04(又称默孚龙号,NORAD编号58820)是北京微纳星空研制的空间环境探测卫星,2024年1月23日于酒泉卫星发射中心搭载力箭一号遥三运载火箭,与另外4颗泰景系列卫星以“一箭五星”方式发射入轨。 该卫星面向空间科学研究研制,搭载先进掩星探测载荷,以及北京大学、山东大学联合研发的空间粒子、空间磁场探测载荷,可开展空间环境参数观测,为空间物理研究、空间环境监测预警提供数据支撑,服务相关领域科研与应用需求。

基本信息
目录编号:
58820
目录名称:
TAIJING-2 04
国际标识:
2024-016A
轨道中心:
EARTH
卫星名称:
TAIJING-2 04
卫星全名:
TAIJING-2 04
卫星状态:
在轨 (已飞行965 天)
发射日期:
2024-01-23 UTC
国别 :
中国 (CN)
星等 :
--
该卫星已列入 空间交会检测服务 Space Conjunction Data Service (SCDS) ,当前飞行风险评估等级: 无高风险
轨道信息
数据来源 国际轨道数据
星历时间: 2026-09-14T13:29:24+0800
3小时前
查看轨道信息
半长轴: 6763.912km
偏心率: 0.0005856
轨道倾角: 97.448°
近地点辐角 87.946°
升交点赤经 356.555°
平近点角 272.247°
近地点: 381.814km
远地点: 389.736km
周期: 92.269分钟
每日圈数: 15.606515
详细信息
使用方式:
暂无
2D轨道图
3D轨道图
轨道高度分析图
轨道倾角分析图
轨道综合分析图
查看轨道综合分析图
与全量物体交会距离演化趋势 订阅飞行安全评估服务
与全量物体交会风险概率演化趋势 订阅飞行安全评估服务